Presure
196 194 204 193 196 196 200 202 200 209 218 214 207 175 194 205 203 196 194 196 197 204 224 199 199 201 200 202 210 211 202 217 200 104 198 216 224 235 249 206 208 214 187 198 201 197 174 191 179
178 192 193 191 197 183 181 193 193 197 197 195 191 199 194 199 187 183 187 211 197 204 196 175 177 113 195 187 189 198 215 222 223 217 147 121 204 228 250 234 233 235 95 97 96 195 199 197 187
155 169 181 178 196 192 159 190 169 195 197 190 184 198 199 195 182 183 178 192 181 193 206 194 204 141 112 196 198 170 199 219 168 232 230 215 191 201 190 153 225 273 89 83 88 93 88 190 118
174 173 185 166 187 178 190 191 194 182 192 191 199 195 187 190 174 202 173 187 197 178 182 178 173 82 105 87 179 167 198 79 77 182 178 191 172 187 239 231 251 255 262 275 273 116 98 92 89
190 182 163 184 174 161 185 176 190 170 175 185 182 185 189 172 190 188 190 195 174 189 187 193 167 155 167 104 95 74 179 75 202 177 160 209 177 150 84 179 203 233 244 238 252 143 109 220 236
192 186 181 180 181 175 167 158 169 163 184 161 183 173 169 188 175 183 184 169 178 185 169 172 190 179 180 190 179 198 161 199 173 184 82 161 130 83 79 85 86 126 140 225 219 232 234 243 238
174 188 183 178 178 176 174 169 189 184 182 168 176 186 179 180 182 171 180 191 184 191 189 184 182 184 179 199 186 179 206 173 196 155 73 78 76 74 136 141 159 183 72 85 96 106 246 239 226
168 176 181 182 174 178 172 167 169 176 170 175 169 170 186 159 174 177 177 180 168 189 172 172 173 177 193 177 185 182 170 183 174 185 181 191 174 185 161 164 82 82 169 186 76 82 83 210 225
167 169 170 169 181 172 173 170 166 165 170 173 170 178 177 179 186 181 185 180 178 188 182 184 197 190 189 186 185 184 163 166 165 158 193 184 156 188 165 182 181 103 195 170 191 111 177 148 83
159 170 168 165 169 180 176 168 171 168 162 168 164 140 170 180 195 182 177 171 184 183 182 175 186 183 184 173 181 163 171 176 174 168 166 170 164 191 172 189 149 181 160 173 183 193 185 182 170
148 167 157 164 161 179 178 173 169 175 171 158 172 175 175 179 177 184 164 188 192 191 182 188 163 187 179 162 163 167 170 171 159 165 185 184 169 153 149 167 195 148 178 171 157 179 173 203 157
160 162 166 164 171 156 182 177 169 169 163 166 177 173 182 180 175 179 180 176 176 187 197 161 179 172 154 161 161 160 163 168 144 151 156 181 180 177 163 174 160 194 148 186 183 196 197 176 158
162 161 159 151 174 159 179 183 174 165 171 167 175 170 178 178 179 180 183 178 173 171 178 175 157 175 158 160 158 162 169 171 182 168 167 152 152 161 174 154 163 163 179 171 169 180 150 135 158
146 135 157 156 152 159 171 178 174 171 169 168 175 171 168 170 167 175 181 177 173 165 164 171 180 173 176 175 171 161 173 178 171 158 167 169 168 159 184 168 169 159 174 158 177 161 167 179 174
154 161 158 163 165 174 169 190 179 170 176 175 176 173 173 162 162 159 152 168 182 181 162 163 166 166 147 157 163 173 172 154 151 157 169 173 161 163 165 162 154 174 166 170 190 156 181 199 167
163 146 152 164 170 180 165 188 183 183 179 167 170 166 155 158 158 168 160 146 155 166 168 167 168 163 158 171 163 159 175 163 166 178 176 162 180 175 165 164 152 154 167 175 171 166 157 180 154
139 164 156 161 157 183 170 157 156 152 148 144 147 154 151 159 147 150 149 151 143 149 168 142 167 153 165 162 160 161 171 166 168 162 159 168 163 170 160 160 170 170 154 159 165 166 166 181 171
156 165 158 164 168 185 178 165 159 161 160 164 151 165 147 150 148 164 149 144 152 158 143 147 149 146 156 163 163 154 152 150 171 169 168 158 171 178 165 175 174 156 171 176 169 175 166 180 166
156 172 155 162 151 147 147 172 171 157 159 146 159 155 189 152 164 161 152 146 147 150 142 168 149 160 168 146 143 135 136 141 136 140 142 145 162 163 161 164 170 166 161 172 171 162 161 177 188
163 143 142 151 145 144 143 143 152 153 139 163 149 142 153 148 143 143 142 142 148 161 144 151 165 155 151 138 163 162 164 153 145 145 135 143 162 157 169 148 165 175 169 151 169 171 158 173 173
134 147 137 154 163 140 161 149 142 150 158 152 134 158 150 143 133 135 138 142 150 139 153 140 135 150 152 140 152 165 143 159 162 163 162 149 152 163 161 163 162 160 171 158 156 164 172 172 174
148 141 144 148 155 147 155 163 144 139 144 155 153 126 139 145 152 136 136 160 147 128 122 129 129 140 157 156 166 161 162 138 146 150 157 155 166 142 140 163 161 163 165 151 163 172 170 175 169
150 142 141 144 146 153 140 146 160 155 142 126 135 134 82 110 140 147 155 161 126 159 157 162 160 163 153 161 155 160 152 160 159 151 149 153 164 160 153 157 162 161 163 165 167 164 171 172 170
146 142 139 145 135 137 153 137 128 158 142 128 149 147 137 116 136 126 110 140 159 158 156 155 151 156 155 149 154 157 152 156 155 152 146 145 142 156 159 163 160 153 155 161 163 165 175 159 173
149 144 130 143 134 141 145 143 122 157 148 150 121 140 147 160 153 151 118 151 130 153 162 160 148 136 159 152 146 159 162 143 142 157 152 156 158 145 145 158 159 158 165 162 163 169 171 171 172
141 147 144 147 140 137 133 139 141 143 146 143 143 151 152 83 142 149 120 154 131 144 150 152 154 147 156 145 149 153 162 156 147 154 160 156 159 160 151 155 154 165 167 168 168 170 177 176 173
146 139 146 138 141 140 133 133 139 139 133 142 150 153 145 146 153 153 151 157 128 154 142 151 154 160 153 107 145 156 153 162 142 158 161 148 158 158 161 157 159 171 167 164 170 170 175 179 163
148 142 140 132 139 136 140 134 137 139 135 138 143 147 149 115 148 140 131 139 151 118 141 151 147 136 150 154 153 142 155 152 163 167 157 170 163 162 163 168 167 171 171 165 168 177 166 176 182
139 143 142 139 138 136 141 137 145 143 131 135 112 140 104 142 144 155 147 145 95 147 99 154 159 127 153 153 147 160 151 156 158 159 157 158 167 161 156 166 167 163 173 163 163 174 181 175 179
132 131 134 133 137 137 140 140 143 149 138 134 134 83 134 139 142 122 101 150 105 148 145 159 153 157 155 149 154 159 152 163 156 164 156 168 160 161 159 163 169 171 164 161 175 170 170 190 179
Wind_Speed
32 31 33 26 22 23 23 21 17 23 22 21 18 11 12 19 17 14 10 9 7 5 8 5 7 9 11 10 8 8 13 12 17 34 15 16 18 23 26 38 46 54 53 57 59 59 49 59 49
28 33 30 27 27 20 13 19 21 23 21 21 17 21 20 16 8 9 10 18 8 12 3 19 20 18 8 14 8 2 3 2 3 8 25 31 17 17 22 24 29 33 35 37 36 56 59 59 52
15 21 28 23 28 23 10 18 3 21 27 19 12 23 22 18 11 5 10 8 9 4 18 8 6 12 16 4 5 23 3 11 17 16 1 9 14 12 13 23 11 7 34 28 32 35 30 51 36
25 23 28 15 29 18 24 23 26 20 28 22 27 22 16 16 8 21 10 10 17 14 6 13 11 32 24 28 15 23 5 28 25 15 17 10 24 19 22 12 17 14 13 8 8 38 43 38 33
31 28 18 28 15 8 24 13 23 7 9 23 15 17 19 11 17 15 6 21 10 11 9 12 19 16 9 23 23 30 17 28 3 15 23 7 14 24 34 9 9 12 11 8 7 39 40 32 36
31 29 27 25 24 17 12 16 9 5 20 8 19 6 2 19 8 12 11 16 3 11 12 19 9 5 7 19 9 11 20 17 25 5 36 21 25 36 37 39 38 16 14 15 9 13 15 18 26
32 31 28 25 22 19 18 13 23 23 21 7 16 20 15 14 15 1 13 19 13 20 17 13 15 11 9 24 19 3 25 18 27 25 41 39 40 37 34 13 12 21 30 41 31 28 10 14 21
30 31 32 27 23 21 18 13 15 19 14 18 11 11 15 14 7 2 11 13 7 18 1 3 4 10 20 3 24 18 2 20 1 20 9 20 20 8 24 26 44 39 23 2 35 42 42 20 19
27 30 27 27 27 22 20 17 15 11 14 14 13 16 15 13 11 13 15 14 13 18 11 12 16 15 18 21 23 29 25 15 14 22 30 24 32 23 18 11 22 43 29 24 20 40 25 29 45
29 27 28 26 26 24 20 19 16 15 14 14 13 14 14 14 10 11 14 11 15 16 16 14 16 19 21 17 25 6 19 20 19 11 23 17 22 26 18 26 33 27 28 23 21 31 25 30 32
28 28 27 27 27 25 20 19 17 13 13 16 16 16 13 14 14 12 12 12 15 15 13 12 6 14 17 4 11 14 24 27 11 22 22 21 24 37 39 21 16 37 30 28 34 32 27 27 40
28 28 29 28 26 25 23 17 18 15 18 17 15 15 13 12 11 11 12 11 12 13 15 4 12 10 15 6 9 11 18 25 31 18 14 15 22 24 24 24 26 16 40 26 28 18 20 28 40
27 26 26 28 28 26 25 20 17 17 13 15 12 11 12 13 12 12 11 11 9 8 13 13 12 15 10 10 17 20 23 24 18 20 25 26 27 31 23 28 24 27 24 32 34 30 41 48 41
27 27 27 26 29 28 28 23 17 18 17 14 10 7 10 10 12 15 12 14 11 11 12 13 14 16 17 15 17 20 17 17 19 28 25 24 26 30 22 30 28 40 27 40 32 40 43 34 44
28 26 27 28 28 29 29 21 20 20 16 12 8 5 6 5 8 7 11 14 12 8 13 14 15 16 24 15 17 14 14 26 27 32 27 21 33 36 36 36 41 30 39 39 30 46 35 33 44
27 34 32 29 30 28 25 16 20 19 17 14 7 8 14 10 10 5 11 17 14 13 11 12 13 13 16 14 14 20 19 21 24 23 21 32 26 31 37 39 42 45 45 38 42 45 49 35 52
36 27 30 29 28 25 20 22 25 24 22 24 20 18 19 15 21 20 20 18 23 20 13 26 12 21 16 17 19 20 19 21 25 31 36 34 32 29 38 40 38 39 46 47 44 43 46 43 44
29 27 27 32 26 24 19 20 27 26 20 17 21 18 22 22 23 12 21 28 20 18 28 25 25 28 18 18 19 26 29 33 26 29 30 35 33 38 35 40 41 45 44 46 44 46 50 48 53
26 26 27 24 25 29 30 19 21 23 16 26 18 18 7 18 16 14 20 25 27 28 33 21 31 24 23 34 36 40 42 40 42 44 43 41 34 35 39 37 43 39 43 50 50 48 51 55 59
23 31 32 29 35 35 36 30 27 30 28 24 24 26 18 21 25 26 28 26 29 30 34 35 26 33 37 40 29 29 31 42 44 48 48 46 39 41 47 49 42 58 52 56 57 59 55 59 57
43 31 42 27 29 40 32 36 31 30 29 30 32 23 24 26 30 34 36 37 33 37 33 41 44 42 36 46 39 36 47 38 41 42 44 47 49 48 48 50 55 54 65 56 60 62 68 64 66
37 39 37 34 30 34 40 40 38 36 33 29 32 35 34 31 30 36 38 32 42 39 38 44 45 44 41 40 42 40 42 56 54 51 50 52 56 58 58 60 60 64 71 63 70 81 77 80 67
40 41 43 35 36 41 48 44 44 38 35 36 40 38 29 36 35 35 31 38 42 39 40 39 42 43 44 46 48 47 47 49 51 52 54 56 60 62 60 64 69 70 74 77 82 77 85 84 80
50 44 43 39 45 49 48 49 63 45 40 35 45 43 42 44 41 38 42 43 43 44 46 45 48 49 50 51 52 54 54 55 56 57 59 63 66 64 67 72 72 68 73 79 82 86 92 78 89
53 50 51 47 49 47 52 48 42 51 51 47 43 50 48 54 53 53 33 52 49 53 53 53 54 54 57 57 57 61 62 56 60 64 65 65 70 67 68 73 78 77 86 84 88 92 92 92 93
59 59 57 53 51 49 54 59 62 61 58 59 55 56 59 28 51 54 44 61 51 57 59 61 62 60 64 61 62 63 69 64 62 69 74 72 75 77 72 76 76 87 90 94 96 98 107 103 96
68 65 67 56 57 55 58 66 61 65 65 69 71 70 61 61 67 68 69 69 50 68 58 65 69 72 69 44 64 73 69 76 66 76 79 70 80 80 83 79 84 97 96 93 99 101 108 110 87
70 72 70 62 66 59 67 65 62 66 69 74 77 75 74 52 71 67 57 62 71 45 64 71 66 61 72 77 75 69 77 77 86 92 78 96 88 89 89 96 97 103 103 95 103 113 99 114 114
74 75 78 77 68 70 73 67 72 71 68 72 33 79 40 81 77 86 83 81 35 73 44 85 85 61 82 83 75 88 81 87 90 91 89 87 99 92 89 104 104 99 113 98 102 117 119 111 109
76 76 79 72 75 72 76 74 78 79 71 70 77 23 81 83 86 63 35 91 41 89 83 95 88 91 88 81 90 95 89 101 95 103 94 110 97 101 98 105 111 113 102 102 124 112 111 128 119
Wind_Direction
52 54 58 59 63 70 79 88 83 89 98 100 107 223 132 116 119 127 138 146 157 136 77 228 256 259 262 272 306 275 280 273 259 247 263 269 275 272 262 254 251 249 245 251 249 246 249 250 249
54 55 58 65 69 73 61 85 85 87 93 98 108 106 126 102 156 190 160 91 115 92 225 247 252 252 249 259 270 269 79 354 307 268 251 247 280 282 275 259 253 252 246 248 250 249 250 250 251
3 56 54 61 63 70 345 88 14 78 82 109 108 90 92 102 154 166 200 92 203 88 54 142 59 255 255 161 132 264 260 51 268 45 126 255 266 281 260 255 287 333 250 254 252 251 250 249 250
28 33 39 46 49 67 65 69 72 65 69 76 59 67 102 103 182 58 226 135 82 218 275 227 247 253 247 252 248 269 245 258 257 276 281 311 266 269 22 340 8 11 9 1 257 253 251 254 253
26 26 359 29 47 350 46 62 56 350 94 70 68 73 57 174 48 96 60 50 182 7 8 72 245 234 254 257 256 255 271 262 173 290 264 59 268 265 260 330 329 357 359 334 323 252 257 255 257
21 22 21 31 32 41 42 2 14 321 54 342 57 96 359 36 134 53 39 224 177 16 249 230 41 247 197 37 308 31 269 27 248 350 251 273 256 255 262 259 260 259 287 11 340 314 288 277 269
13 17 16 15 27 25 31 31 37 37 39 34 45 35 33 39 27 146 55 9 45 14 30 37 348 35 193 13 57 123 21 269 31 269 265 256 262 269 263 253 239 341 265 260 264 272 321 294 282
360 9 13 12 9 17 15 16 22 29 19 27 15 23 32 268 16 359 44 29 185 6 92 8 54 76 7 352 20 32 4 22 8 13 282 11 315 22 270 263 270 273 267 212 268 262 260 341 325
356 356 1 4 3 1 0 5 360 5 14 12 6 23 18 10 3 356 352 360 10 358 15 19 3 6 17 18 18 10 237 291 277 275 2 360 262 356 250 305 318 271 345 253 325 266 292 255 261
343 355 352 349 357 353 352 347 358 355 345 356 346 308 355 6 2 359 359 343 342 350 2 27 8 24 22 33 20 293 17 359 332 339 296 328 255 349 294 336 267 334 259 291 312 328 314 300 251
328 347 338 343 340 350 341 336 339 355 351 331 355 1 349 358 7 358 348 333 324 332 351 345 9 17 31 34 24 1 5 359 325 1 348 343 338 258 266 315 328 269 332 310 279 314 291 309 262
334 335 343 341 341 331 336 329 326 333 331 338 1 2 356 359 4 359 360 13 15 3 339 359 33 37 272 341 353 356 358 353 262 278 300 341 345 339 319 325 307 338 267 313 317 324 323 281 280
328 326 328 324 341 327 330 322 318 318 321 331 353 354 8 13 9 6 5 34 47 38 30 25 302 26 298 334 322 351 343 338 334 324 334 294 292 322 323 301 303 300 311 310 310 305 277 267 286
315 310 318 316 316 323 324 319 305 302 310 324 332 341 360 30 38 45 29 44 36 43 25 29 28 22 11 7 353 342 344 335 328 323 322 318 319 312 310 309 304 314 303 308 307 305 307 295 303
308 314 315 318 317 325 319 315 290 308 299 311 314 340 15 357 14 360 321 32 44 24 14 12 27 33 292 339 340 343 338 317 313 320 316 309 311 309 308 308 310 298 305 302 327 304 287 324 300
305 310 310 319 316 320 313 324 301 294 305 311 310 330 320 322 340 24 353 318 6 25 6 15 25 6 344 360 335 324 351 318 323 339 326 315 323 313 308 305 307 306 302 294 296 297 299 315 298
302 308 308 319 309 314 302 299 303 303 310 310 316 322 319 320 329 332 324 329 322 334 1 321 4 329 349 335 333 335 348 316 319 306 307 318 311 315 304 306 315 313 300 305 305 302 294 319 303
296 301 307 314 315 307 292 288 295 302 314 311 313 315 311 315 320 318 314 320 320 325 320 320 314 317 321 324 314 313 306 309 332 331 323 310 329 336 319 332 326 305 320 320 307 313 294 321 296
290 296 305 307 306 304 308 311 299 304 309 305 319 317 299 319 290 296 307 310 310 310 315 319 303 314 314 306 303 307 308 307 307 307 305 308 314 315 313 319 327 314 305 326 318 296 292 322 327
281 286 296 298 295 297 297 301 307 302 306 301 304 301 306 306 306 306 304 303 300 299 302 300 315 302 301 304 308 304 308 300 303 297 303 305 310 297 325 293 317 329 321 295 320 316 295 315 316
284 285 290 299 304 292 303 292 297 303 303 300 301 298 299 299 296 302 302 301 300 300 296 297 304 294 295 300 303 317 296 305 314 315 314 294 305 317 311 312 312 309 325 301 298 307 317 315 314
275 278 285 290 300 288 299 297 285 286 292 296 287 292 296 290 282 297 300 300 295 296 292 300 300 295 309 296 313 309 311 296 294 300 313 311 317 295 295 318 318 320 321 303 316 318 317 320 312
278 271 284 289 291 300 284 296 299 289 283 283 285 285 285 290 284 283 294 305 296 307 307 304 302 310 298 308 302 309 302 312 309 305 305 310 318 315 308 313 319 318 319 319 317 314 315 317 314
277 278 276 286 283 284 292 288 285 300 285 279 293 296 285 290 293 290 283 286 306 303 302 302 298 303 302 297 306 308 302 309 307 305 299 300 299 315 315 317 316 308 309 314 313 313 316 304 317
275 278 274 280 278 288 295 290 285 303 292 294 277 283 289 303 298 298 299 299 287 304 308 305 297 297 307 301 299 311 310 298 298 310 307 311 312 296 297 313 313 310 315 312 312 313 313 314 313
277 278 277 279 278 281 284 289 292 297 294 290 292 301 299 285 297 296 297 302 289 299 304 305 305 299 306 295 299 304 308 306 300 310 312 309 311 311 302 307 305 315 314 313 312 312 315 313 313
273 276 277 275 279 279 278 283 289 294 292 298 302 300 295 297 301 300 300 300 280 302 300 302 303 304 302 296 301 307 304 309 293 309 311 298 308 308 310 303 307 314 312 310 312 311 313 312 301
268 275 277 276 279 280 281 281 289 290 290 295 295 297 298 293 298 295 288 289 298 291 300 302 299 299 302 304 305 305 306 304 309 312 307 314 311 309 309 313 312 314 312 308 309 312 304 311 312
272 272 274 276 277 277 279 284 286 284 285 292 270 296 282 296 296 298 298 300 288 299 303 303 303 297 301 302 301 305 302 308 310 309 307 307 310 308 305 312 312 308 313 305 307 311 310 309 304
269 270 273 276 278 280 281 279 279 280 281 285 288 257 291 293 294 297 288 299 282 300 301 301 300 301 300 299 304 305 305 306 306 307 307 310 308 308 307 309 311 311 306 306 310 305 303 307 308